Weather History for Amritsar, India

Change the Weather History Date:

Friday, April 5, 2013

  Actual Average Record
Temperature  
Mean Temperature 71 °F -  
Max Temperature 88 °F 86 °F 98 °F (2004)
Min Temperature 54 °F 62 °F 50 °F (2008)
Cooling Degree Days 6    
Growing Degree Days 21 (Base 50)    
Moisture  
Dew Point 56 °F    
Average Humidity 60    
Maximum Humidity 100    
Minimum Humidity 19    
Precipitation  
Precipitation 0.00 in - - ()
Sea Level Pressure  
Sea Level Pressure 29.78 in    
Wind  
Wind Speed 3 mph ()    
Max Wind Speed 15 mph    
Max Gust Speed -    
Visibility 3.1 miles    
Events      
Averages and records for this station are not official NWS values.
T = Trace of Precipitation, MM = Missing Value Source: Averaged Metar Reports

Daily Weather History Graph

Daily Weather History Graph

Search for Another Location

Airport:

Trip Planner

Search our weather history database for the weather conditions in past years. The results will help you decide how hot, cold, wet, or windy it might be!

Date:

Astronomy

Apr. 05, 2013 Rise Set
Actual Time 6:14 AM IST 6:52 PM IST
Civil Twilight 5:49 AM IST 7:17 PM IST
Nautical Twilight 5:21 AM IST 7:46 PM IST
Astronomical Twilight 4:51 AM IST 8:16 PM IST
Moon 2:45 AM IST (4/5) 2:04 PM IST (4/5)
Length of Visible Light 13h 27m
Length of Day
12h 38m
Waning Crescent, 27% of the Moon is Illuminated
Apr 5
Waning Crescent
Apr 10
New
Apr 18
First Quarter
Apr 26
Full
May 2
Last Quarter

Hourly Weather History & Observations

Time (IST) Temp. Heat Index Dew Point Humidity Pressure Visibility Wind Dir Wind Speed Gust Speed Precip Events Conditions
12:30 AM 60.8 °F - 53.6 °F 77% 29.80 in 3.1 mi Variable 2.3 mph - N/A   Haze
1:00 AM 62.6 °F - 53.6 °F 72% 29.80 in 3.1 mi Calm Calm - N/A   Haze
1:30 AM 59.0 °F - 55.4 °F 88% 29.77 in 3.1 mi Calm Calm - N/A   Mist
2:00 AM 59.0 °F - 55.4 °F 88% 29.77 in 2.8 mi Calm Calm - N/A   Mist
2:30 AM 59.0 °F - 53.6 °F 82% 29.77 in 2.8 mi Calm Calm - N/A   Mist
3:00 AM 57.2 °F - 53.6 °F 88% 29.77 in 2.8 mi Calm Calm - N/A   Mist
3:30 AM 57.2 °F - 57.2 °F 100% 29.77 in 2.8 mi Calm Calm - N/A   Mist
4:00 AM 55.4 °F - 55.4 °F 100% 29.77 in 2.8 mi Calm Calm - N/A   Mist
5:00 AM 59.0 °F - 57.2 °F 94% 29.77 in 2.8 mi Variable 2.3 mph - N/A   Mist
5:30 AM 58 °F - 56 °F 89% 29.77 in 2 mi Calm Calm - -   Mist
5:30 AM 57.2 °F - 55.4 °F 94% 29.77 in 2.8 mi Calm Calm - N/A   Mist
6:00 AM 55.4 °F - 55.4 °F 100% 29.77 in 2.8 mi Calm Calm - N/A   Mist
7:00 AM 55.4 °F - 55.4 °F 100% 29.80 in 2.2 mi Calm Calm - N/A   Partly Cloudy
7:30 AM 59.0 °F - 59.0 °F 100% 29.80 in 2.2 mi Variable 2.3 mph - N/A   Mist
8:00 AM 62.6 °F - 60.8 °F 94% 29.80 in 2.2 mi West 3.5 mph - N/A   Mist
8:30 AM 64 °F - 59 °F 78% 29.80 in 2 mi West 5.8 mph - -   Mist
8:30 AM 64.4 °F - 57.2 °F 77% 29.80 in 2.5 mi West 5.8 mph - N/A   Mist
9:00 AM 68.0 °F - 57.2 °F 68% 29.80 in 2.5 mi WNW 4.6 mph - N/A   Mist
10:00 AM 75.2 °F - 55.4 °F 50% 29.83 in 3.7 mi Variable 4.6 mph - N/A   Unknown
10:30 AM 77.0 °F - 50.0 °F 39% 29.83 in 3.7 mi WNW 4.6 mph - N/A   Unknown
11:00 AM 80.6 °F - 51.8 °F 37% 29.83 in 4.3 mi NW 5.8 mph - N/A   Unknown
11:30 AM 81 °F - 52 °F 26% 29.78 in 6 mi NW 9.2 mph - -  
11:30 AM 80.6 °F - 51.8 °F 37% 29.83 in - NW 9.2 mph - N/A   Clear
12:00 PM 82.4 °F 81.4 °F 53.6 °F 37% 29.83 in - NW 9.2 mph - N/A   Clear
12:30 PM 82.4 °F 81.4 °F 53.6 °F 37% 29.80 in - West 9.2 mph - N/A   Clear
1:00 PM 84.2 °F 82.8 °F 53.6 °F 35% 29.80 in - WNW 10.4 mph - N/A   Clear
1:30 PM 84.2 °F - 51.8 °F 33% 29.80 in - WNW 12.7 mph - N/A   Clear
2:00 PM 87.8 °F - 51.8 °F 29% 29.80 in - WNW 13.8 mph - N/A   Clear
2:30 PM 87 °F - 51 °F 19% 29.73 in 2 mi WNW 11.5 mph - -  
2:30 PM 86.0 °F - 50.0 °F 29% 29.77 in 3.7 mi WNW 11.5 mph - N/A   Unknown
3:00 PM 86.0 °F 84.2 °F 53.6 °F 33% 29.77 in 3.7 mi WNW 15.0 mph - N/A   Unknown
3:30 PM 87.8 °F - 51.8 °F 29% 29.77 in 3.7 mi WNW 13.8 mph - N/A   Unknown
4:00 PM 86.0 °F 84.2 °F 53.6 °F 33% 29.74 in 3.7 mi WNW 12.7 mph - N/A   Unknown
4:30 PM 86.0 °F 84.5 °F 55.4 °F 35% 29.74 in 3.7 mi WNW 10.4 mph - N/A   Unknown
5:00 PM 86.0 °F 84.9 °F 57.2 °F 37% 29.74 in 3.7 mi WNW 9.2 mph - N/A   Unknown
5:30 PM 85 °F - 58 °F 29% 29.70 in 2 mi NW 6.9 mph - -   Clear
5:30 PM 84.2 °F 83.5 °F 57.2 °F 40% 29.74 in 3.7 mi NW 6.9 mph - N/A   Scattered Clouds
6:00 PM 82.4 °F 82.5 °F 59.0 °F 45% 29.74 in 3.7 mi WNW 5.8 mph - N/A   Scattered Clouds
6:30 PM 80.6 °F 81.5 °F 60.8 °F 51% 29.74 in 3.7 mi WNW 4.6 mph - N/A   Mostly Cloudy
7:00 PM 77.0 °F - 59.0 °F 54% 29.74 in 3.7 mi Variable 2.3 mph - N/A   Mostly Cloudy
7:30 PM 75.2 °F - 60.8 °F 61% 29.74 in 3.7 mi Calm Calm - N/A   Mostly Cloudy
8:30 PM 73 °F - 58 °F 49% 29.74 in 2 mi Calm Calm - -   Haze
8:30 PM 73.4 °F - 57.2 °F 57% 29.77 in 3.1 mi Calm Calm - N/A   Scattered Clouds
9:00 PM 71.6 °F - 57.2 °F 60% 29.77 in 3.1 mi Calm Calm - N/A   Haze
9:30 PM 71.6 °F - 57.2 °F 60% 29.77 in 3.1 mi Calm Calm - N/A   Haze
10:00 PM 69.8 °F - 57.2 °F 64% 29.80 in 3.1 mi Calm Calm - N/A   Haze
10:30 PM 68.0 °F - 57.2 °F 68% 29.80 in 3.1 mi Calm Calm - N/A   Haze
11:00 PM 66.2 °F - 57.2 °F 73% 29.77 in 3.1 mi Calm Calm - N/A   Haze
11:30 PM 66.2 °F - 57.2 °F 73% 29.77 in 2.5 mi Calm Calm - N/A   Haze